Location: ?
(35.3544°N, 139.4507°E)
Time: 07:27:48
(UTC+00:00)

Cosmos 1745 Rocket - Pass Details

Date: 03 August 2024
Orbit: 952 x 998 km, 83.0° (Epoch: 10 September)

Event Time Altitude Azimuth Distance (km) Brightness Sun altitude
Rises 18:56:02 0° 355° (N) 3,632 7.4 -11.3°
Reaches altitude 10° 18:58:32 10° 357° (N) 2,683 6.7 -10.8°
Maximum altitude 19:04:40 76° 83° (E) 985 4.2 -9.8°
Drops below altitude 10° 19:10:47 10° 169° (S) 2,682 6.1 -8.7°
Sets 19:13:17 0° 171° (S) 3,629 6.8 -8.2°
